Washington, VA

8:15 AM EST on December 13, 2019 (GMT -0500)
Ronald Reagan Washington National

Weather History for KDCA - October, 2019

Change the Weather History Date:

Tuesday, October 8, 2019

  Actual Average Record
Temperature  
Mean Temperature 65 °F 62 °F  
Max Temperature 68 °F 71 °F 91 °F (2007)
Min Temperature 61 °F 53 °F 36 °F (1964)
Degree Days  
Heating Degree Days 0 5  
Month to date heating degree days 7 30  
Since 1 July heating degree days 7 54  
Cooling Degree Days 0 2  
Month to date cooling degree days 61 18  
Year to date cooling degree days 2056 1531  
Growing Degree Days 14 (Base 50)    
Moisture  
Dew Point 52 °F    
Average Humidity 63    
Maximum Humidity 84    
Minimum Humidity 42    
Precipitation  
Precipitation 0.00 in 0.11 in 3.67 in (2005)
Month to date precipitation 0.02 0.87  
Year to date precipitation 31.05 30.99  
Snow  
Snow 0.00 in 0.00 in - ()
Month to date snowfall 0.0 0.0  
Since 1 July snowfall 0.0 0.0  
Snow Depth 0.00 in    
Sea Level Pressure  
Sea Level Pressure 30.19 in    
Wind  
Wind Speed 15 mph (NNE)    
Max Wind Speed 22 mph    
Max Gust Speed 27 mph    
Visibility 10 miles    
Events      
T = Trace of Precipitation, MM = Missing Value Source: NWS Daily Summary

Daily Weather History Graph

Daily Weather History Graph

Search for Another Location

Airport or City:

Astronomy

Oct. 08, 2019 Rise Set
Actual Time 7:10 AM EDT 6:40 PM EDT
Civil Twilight 6:43 AM EDT 7:07 PM EDT
Nautical Twilight 6:12 AM EDT 7:37 PM EDT
Astronomical Twilight 5:42 AM EDT 8:08 PM EDT
Moon 4:34 PM EDT (10/8) 2:01 AM EDT (10/8)
Length of Visible Light 12h 23m
Length of Day
11h 29m
Waxing Gibbous, 77% of the Moon is Illuminated
Oct 8
Waxing Gibbous
Oct 13
Full
Oct 21
Last Quarter
Oct 27
New
Nov 4
First Quarter

Hourly Weather History & Observations

Time (EDT) Temp. Dew Point Humidity Pressure Visibility Wind Dir Wind Speed Gust Speed Precip Events Conditions
12:52 AM 63.0 °F 57.0 °F 81% 30.17 in 10.0 mi North 15.0 mph - N/A   Overcast
1:00 AM 63.0 °F 57.0 °F 81% 30.18 in 10.0 mi North 15.0 mph - N/A   Overcast
1:07 AM 63.0 °F 57.0 °F 81% 30.17 in 10.0 mi North 17.3 mph - N/A   Overcast
1:34 AM 63.0 °F 57.0 °F 81% 30.18 in 10.0 mi North 15.0 mph - N/A   Overcast
1:52 AM 63.0 °F 57.0 °F 81% 30.17 in 10.0 mi North 13.8 mph 21.9 mph N/A   Overcast
2:27 AM 62.1 °F 55.9 °F 80% 30.17 in 10.0 mi North 18.4 mph 24.2 mph N/A   Overcast
2:34 AM 62.1 °F 55.9 °F 80% 30.18 in 10.0 mi North 19.6 mph 24.2 mph N/A   Overcast
2:52 AM 62.1 °F 55.9 °F 80% 30.17 in 10.0 mi NNE 17.3 mph - N/A   Overcast
3:52 AM 62.1 °F 55.0 °F 78% 30.17 in 10.0 mi North 18.4 mph - N/A   Overcast
4:14 AM 62.1 °F 54.0 °F 75% 30.17 in 10.0 mi NNE 19.6 mph - N/A   Overcast
4:52 AM 62.1 °F 55.0 °F 78% 30.18 in 10.0 mi North 16.1 mph - N/A   Overcast
5:08 AM 61.0 °F 55.0 °F 81% 30.18 in 10.0 mi NNE 17.3 mph - N/A   Overcast
5:52 AM 62.1 °F 55.0 °F 78% 30.19 in 10.0 mi NNE 18.4 mph - N/A   Overcast
6:52 AM 62.1 °F 53.1 °F 72% 30.20 in 10.0 mi NNE 15.0 mph - N/A   Overcast
7:14 AM 62.1 °F 51.1 °F 67% 30.20 in 10.0 mi NNE 17.3 mph - N/A   Overcast
7:52 AM 62.1 °F 52.0 °F 70% 30.20 in 10.0 mi NNE 18.4 mph - N/A   Overcast
8:52 AM 63.0 °F 51.1 °F 65% 30.21 in 10.0 mi NNE 13.8 mph - N/A   Overcast
9:52 AM 64.0 °F 50.0 °F 60% 30.22 in 10.0 mi NNE 20.7 mph - N/A   Overcast
10:52 AM 64.9 °F 50.0 °F 58% 30.22 in 10.0 mi NE 18.4 mph - N/A   Overcast
11:52 AM 64.9 °F 52.0 °F 63% 30.22 in 10.0 mi NE 17.3 mph - N/A   Overcast
12:52 PM 66.0 °F 52.0 °F 60% 30.20 in 10.0 mi NE 16.1 mph - N/A   Overcast
1:52 PM 66.0 °F 50.0 °F 56% 30.17 in 10.0 mi NNE 16.1 mph - N/A   Overcast
2:52 PM 66.9 °F 48.9 °F 52% 30.17 in 10.0 mi NE 15.0 mph - N/A   Overcast
3:52 PM 68.0 °F 46.9 °F 47% 30.16 in 10.0 mi NE 15.0 mph - N/A   Mostly Cloudy
4:52 PM 68.0 °F 46.0 °F 45% 30.16 in 10.0 mi NE 11.5 mph - N/A   Mostly Cloudy
5:52 PM 68.0 °F 45.0 °F 43% 30.17 in 10.0 mi NNE 11.5 mph - N/A   Overcast
6:52 PM 68.0 °F 46.0 °F 45% 30.18 in 10.0 mi NNE 10.4 mph - N/A   Mostly Cloudy
7:52 PM 66.9 °F 48.9 °F 52% 30.19 in 10.0 mi North 13.8 mph - N/A   Overcast
8:52 PM 64.9 °F 46.9 °F 52% 30.20 in 10.0 mi NNE 15.0 mph - N/A   Overcast
9:52 PM 64.9 °F 46.0 °F 50% 30.19 in 10.0 mi NNE 15.0 mph - N/A   Overcast
10:52 PM 64.9 °F 46.0 °F 50% 30.20 in 10.0 mi NNE 13.8 mph - N/A   Overcast
11:52 PM 64.0 °F 44.1 °F 48% 30.19 in 10.0 mi NNE 11.5 mph - N/A   Overcast